Location: Chaves
(41.7330°N, 7.4670°W)
Time: 06:13:29
(UTC+01:00)

ISS - Visible Passes

Search period start: 30 April 2017 00:00
Search period end: 10 May 2017 00:00
Orbit: 401 x 409 km, 51.6° (Epoch: 30 April)

Date Brightness Start Highest point End Pass type
(mag) Time Alt. Az. Time Alt. Az. Time Alt. Az.
04 May -1.2 05:25:27 10° SSE 05:27:19 14° SE 05:29:13 10° E visible
06 May -2.6 05:16:45 13° SSW 05:19:16 34° SE 05:22:17 10° ENE visible
07 May -1.8 04:26:42 17° SSE 04:27:17 18° SE 04:29:37 10° E visible
08 May -3.9 05:09:14 20° SW 05:11:19 85° SE 05:14:35 10° NE visible
09 May -3.2 04:19:01 42° SSE 04:19:12 43° SE 04:22:20 10° ENE visible
